Погода в Андреевке

Украина / Харьковская область     49°32′05″N   36°37′17″E
темп.,
°C
ветер,
м/с
пор.,
м/с
влажн.,
%
обл.,
%
осадки,
мм/ч
давл.,
гПа
погр.,
м
18 апреля, вс
вс1800:00+7юз3679100 0.1 1020215
03:00+7юз2580100 0.1 1019158
06:00+6зюз2485100 0.0 1019115
09:00+9юз3568100 0.1 1018548
12:00+12юз355490 0.7 10181362
15:00+13юз465399 1.4 10171302
18:00+12юз476199 1.3 1016677
21:00+8ссз4690100 2.0 1017269
19 апреля, пн
пн1900:00+8всв118699 0.0 101734
03:00+6з119126 0.0 101710
06:00+5ссз2294100 0.0 101727
09:00+9ссз2273100 0.0 1017601
12:00+12зсз1254100 0.0 10161273
15:00+14ссз3247100 0.0 10151687
18:00+13с435226 0.0 1015995
21:00+9ссв36695 0.0 1015121
20 апреля, вт
вт2000:00+7всв347348 0.0 101481
03:00+7св377899 0.0 1012151
06:00+8ссв5978100 0.0 1009210
09:00+10всв71285100 0.4 1008585
12:00+9всв81491100 3.1 1004795
15:00+10в111793100 10.9 998943
18:00+13ю713796 2.6 9961122
21:00+10ю81586100 3.0 996741
21 апреля, ср
ср2100:00+7юз81293100 0.2 997677
03:00+6з81388100 0.6 10021029
06:00+7з61285100 0.1 1007905
09:00+8з61085100 0.2 1011631
12:00+11з6863100 0.1 10131447
15:00+11зюз6859100 0.3 10141581
18:00+10з686978 0.1 1017695
21:00+8зюз3770100 0.2 1019310
22 апреля, чт
чт2200:00+6юз357762 0.0 101976
03:00+5ююз347820 0.0 102061
06:00+5ю33776 0.0 102142
09:00+11ю466565 0.0 1021572
12:00+14ююз455749 0.9 10201520
15:00+15ю4554100 2.2 10191239
18:00+13ююв3566100 0.4 1020162
21:00+10ююз34786 0.4 102056